This is the latest recevied weather packets stored in our database for station/object DM1HF-13. If no packets are shown the sender has not sent any weather packets the latest 10 day(s).
| Time | Temp. | Humidity | Pressure | Rain* | Wind** | Luminosity | Snow |
|---|---|---|---|---|---|---|---|
| 1777791316 | 18.33° C | 45% | 1016.1 hPa | 0 mm | - | 443 W/m² | - |
| 1777791016 | 18.33° C | 46% | 1016.2 hPa | 0 mm | - | 334 W/m² | - |
| 1777790716 | 17.78° C | 47% | 1016.2 hPa | 0 mm | - | 136 W/m² | - |
| 1777790416 | 17.78° C | 48% | 1016.2 hPa | 0 mm | - | 141 W/m² | - |
| 1777790116 | 17.22° C | 48% | 1016.2 hPa | 0 mm | - | 140 W/m² | - |
| 1777789816 | 16.67° C | 49% | 1016.2 hPa | 0 mm | - | 136 W/m² | - |
| 1777789516 | 16.67° C | 50% | 1016.2 hPa | 0 mm | - | 323 W/m² | - |
| 1777789216 | 16.11° C | 50% | 1016.2 hPa | 0 mm | - | 50 W/m² | - |
| 1777788916 | 16.11° C | 51% | 1016.2 hPa | 0 mm | - | 48 W/m² | - |
| 1777788616 | 15.56° C | 52% | 1016.2 hPa | 0 mm | - | 48 W/m² | - |
| 1777788316 | 15.56° C | 53% | 1016.1 hPa | 0 mm | - | 46 W/m² | - |
| 1777788016 | 15° C | 54% | 1016.1 hPa | 0 mm | - | 44 W/m² | - |
| 1777787716 | 15° C | 56% | 1016.2 hPa | 0 mm | - | 43 W/m² | - |
| 1777787416 | 14.44° C | 57% | 1016.1 hPa | 0 mm | - | 42 W/m² | - |
| 1777787116 | 13.89° C | 57% | 1016.1 hPa | 0 mm | - | 40 W/m² | - |
| 1777786816 | 13.89° C | 58% | 1016.1 hPa | 0 mm | - | 39 W/m² | - |
| 1777786516 | 13.33° C | 59% | 1016.1 hPa | 0 mm | - | 36 W/m² | - |
| 1777786216 | 13.33° C | 60% | 1016.1 hPa | 0 mm | - | 32 W/m² | - |
| 1777785916 | 13.33° C | 60% | 1016.1 hPa | 0 mm | - | 28 W/m² | - |
| 1777785616 | 12.78° C | 61% | 1016.1 hPa | 0 mm | - | 25 W/m² | - |
| 1777785316 | 12.78° C | 61% | 1016.1 hPa | 0 mm | - | 24 W/m² | - |
| 1777785016 | 12.78° C | 61% | 1016.1 hPa | 0 mm | - | 23 W/m² | - |
| 1777784716 | 12.78° C | 62% | 1016.1 hPa | 0 mm | - | 24 W/m² | - |
| 1777784416 | 12.78° C | 62% | 1016.1 hPa | 0 mm | - | 23 W/m² | - |
| 1777784116 | 12.22° C | 62% | 1016 hPa | 0 mm | - | 20 W/m² | - |
* Rain latest hour (hover to see other rain measurements)
** Current wind speed in m/s (hover to see current wind gust speed)